星链-2635 (STARLINK-2635 )

导读 | 豆包AI

STARLINK-2635是美国SpaceX公司星链(Starlink)项目的卫星,于2021年5月4日发射升空,属于星链互联网卫星星座的一部分,主要为全球提供低延迟、高速率的宽带互联网服务,尤其服务偏远地区和网络基础设施薄弱区域,推动全球网络覆盖与互联。

Basic Information
目录编号:
48355
目录名称:
STARLINK-2635
国际标识:
2021-038C
轨道中心:
EARTH
卫星名称:
星链-2635
卫星全名:
星链-2635 (STARLINK-2635 )
卫星状态:
在轨 (已飞行1822 天)
发射日期:
2021-05-04 UTC
国别 :
美国 (US)
星等 :
--
Orbit Information
数据来源 国际轨道数据 AOE轨道数据
星历时间 2026-04-30T11:39:23+0800
12小时前
查看轨道信息
2026-04-30T20:00:00+0800
4小时前
查看轨道信息
半长轴 6848.875km 6848.789km
偏心率 0.0001168 0.0001143
轨道倾角 53.160° 53.159°
近地点辐角 90.177° 86.755°
升交点赤经 118.871° 117.254°
平近点角 269.937° 31.457°
近地点 469.938km 469.869km
远地点 471.538km 471.435km
周期 94.013分钟 94.011分钟
每日圈数 15.317009 15.317298
Detailed Information
固有亮度:
5
最大亮度:
2.5
卫星平台:
Starlink V1.0
覆盖范围:
全球
运营商:
太空探索技术公司
运营商所在国:
美国
制造商(研发单位):
太空探索技术公司
制造商所在国:
美国
使用方式:
暂无
Satellite Introduction
星链(Starlink)计划是由太空探索技术公司(SpaceX)提出的一个巨型低轨卫星互联网星座项目,计划在2019年至2024年间在太空搭建由约1.2万颗卫星组成的“星链”网络,其中1584颗将部署在地球上空550千米处的近地轨道,并从2020年开始工作。该卫星仍在工作。
2D Orbit Map
3D Orbit Map
Orbit Altitude Analysis Chart
Orbit Inclination Analysis Chart
Orbit Comprehensive Analysis Chart
View Comprehensive Chart